SCP
0 0 0 0 0 0 0 0 0 -0 -0 0 -0 -0 -0 -0 -0 -0 0 -0 -0 -0 -0 -0 -0 -0 -0 -0 -0 -0 -0 -0 -0 -0 -0 -0 -0 0 0 0 0 -0 -0
-0 0 0 0 0 0 0 0 -0 -0 -0 0 0 -0 0 0 0 -0 0 -0 -0 -0 -0 -0 -0 -0 -0 -0 -0 -0 -0 -0 -0 -0 -0 -0 -0 -0 0 -0 -1 -0 -0
-0 -0 0 0 0 0 0 -0 -0 -0 -0 -0 -0 -0 0 0 0 0 0 0 -0 -0 -0 -0 -0 -0 -0 -0 -0 -0 -0 -0 -0 -0 0 -0 -0 0 0 0 -0 -0 0
-0 -0 -0 0 -0 -0 0 -0 -0 -0 -0 -0 -0 -0 -0 0 0 0 0 0 0 -0 -0 -0 -0 -0 -0 -0 -0 -0 -0 -0 -0 -0 0 0 -0 -0 0 0 -0 -0 0
-0 -0 -0 0 -0 -0 -0 -0 -0 -0 -0 -0 -0 -0 -0 0 0 -0 0 0 0 0 0 0 0 0 -0 -0 -0 -0 -0 -0 -0 -0 -0 -0 -0 -0 0 0 0 0 0
-0 -0 -0 -0 -0 -0 -0 -0 -0 -0 -0 -0 -1 -0 -0 -0 0 -0 0 0 0 0 0 0 -0 0 -0 -0 -0 -0 -0 -0 0 -0 -0 -0 0 -0 -0 0 0 0 0
-0 -0 -0 -0 -0 -0 -0 -0 -0 -0 -0 -0 -0 -0 -0 -0 0 0 0 0 0 0 0 0 -0 0 0 0 -0 -0 -0 -0 0 -0 -0 -0 -0 -0 -0 0 0 0 0
-0 -0 -0 -0 -0 -0 -0 -0 -0 -0 -0 -0 -0 -0 -0 -0 -0 0 0 0 0 0 -0 0 0 0 0 -0 -0 0 0 -0 -0 -0 -0 -0 -0 -0 0 0 0 0 0
-0 -0 -0 -0 -0 -0 -0 -0 -0 -0 -0 -0 -0 -0 -0 -0 -0 -0 0 0 0 0 0 0 0 0 -0 0 0 0 0 0 -0 0 0 0 0 -0 0 0 0 -0 -0
-0 -0 -0 -0 -0 -0 -0 -0 -0 -0 -0 -0 -0 -0 -0 0 -0 -0 0 0 0 0 0 0 0 -0 -0 0 0 0 0 0 0 0 0 -0 -0 -0 0 0 0 0 0
-0 -0 -0 -0 -0 0 -0 -0 -0 -0 -0 -0 -0 -0 -0 -0 -0 -0 -0 -0 0 0 -0 -0 -0 -0 0 0 0 -0 -0 -0 -0 0 0 -0 -0 -0 -0 -0 0 -0 -0
-0 -0 -0 -0 -0 -0 -0 -0 -0 -0 -0 -0 -0 -0 0 -0 -0 -0 -0 -0 -0 -0 -0 -0 -0 -0 -0 0 0 -0 0 -0 0 0 -0 -0 -0 -0 -0 -0 -0 -0 -0
-0 -0 -0 -0 -0 -0 0 0 0 0 0 0 0 -0 -0 0 0 0 -0 0 0 -0 -0 -0 -0 -0 -0 -0 0 0 0 -0 0 0 -0 -0 0 -0 -0 -0 -0 -0 -0
-0 0 -0 -0 -0 -0 0 0 -0 0 -0 0 -0 -0 -0 -0 0 -0 -0 -0 0 0 -0 -0 -0 0 0 0 -0 0 -0 0 0 0 -0 -0 -0 -0 -0 -0 -0 -0 -0
-0 -0 -0 -0 -0 -0 0 0 0 0 -0 0 0 0 -0 0 -0 0 -0 -0 0 -0 -0 -0 0 -0 -0 -0 -0 0 0 -0 0 0 0 -0 -0 -0 -0 -0 -0 -0 0
0 -0 -0 -0 -0 0 0 0 0 0 0 0 0 -0 0 0 -0 0 0 -0 -0 -0 -0 -0 -0 -0 0 -0 0 0 -0 0 -0 0 -0 0 -0 0 0 -0 -0 -0 -0
-0 -0 0 -0 -0 -0 0 0 0 0 0 0 0 -0 0 0 0 0 0 0 -0 -0 -0 -0 -0 0 0 0 0 -0 -0 -0 -0 -0 0 -0 -0 -0 -0 -0 -0 0 0
-0 -1 -0 -0 -0 -0 0 0 -0 0 0 0 0 0 -0 -0 0 -0 -0 -0 0 0 0 0 0 0 0 -0 0 0 -0 -0 -0 -0 0 0 -0 -0 -0 -0 -0 0 0
-0 -0 -0 -0 -0 -0 0 0 -0 0 0 0 0 0 -0 -0 0 -0 -0 0 -0 0 0 -0 0 0 -0 -0 -0 -0 0 0 -0 0 0 0 0 0 -0 -0 -0 -0 -0
0 0 0 0 -0 -0 0 0 -0 0 0 0 0 0 -0 0 0 0 0 0 -0 0 0 0 0 0 0 0 0 0 -0 0 0 0 -0 -0 0 0 0 -0 -0 -0 -0
0 0 -0 0 0 0 0 0 0 0 0 0 0 0 0 -0 0 0 0 0 0 0 0 0 0 0 0 0 0 0 0 -0 0 0 -0 -0 -0 0 0 0 -0 -0 -0
-0 -0 -0 -0 0 0 0 0 0 0 0 0 -0 -0 -0 0 -0 0 0 0 0 0 0 0 0 -0 0 0 0 -0 -0 0 0 -0 0 0 -0 -0 -0 -0 -0 -0 -0
-0 -0 -0 -0 0 0 -0 0 0 0 1 0 0 -0 -0 -0 -0 0 0 0 0 0 0 0 0 0 0 0 -0 -0 -0 -0 0 -0 -0 0 0 0 -0 -0 -0 -0 -0
-0 -0 -0 -0 -0 -0 0 0 0 0 0 0 0 0 0 0 0 0 0 0 0 0 0 0 0 0 0 0 0 0 0 0 -0 -0 -0 -0 0 -0 -0 -0 -0 -0 -0
-0 -0 -0 -0 -0 0 0 -0 0 0 0 0 0 0 0 0 -0 0 -0 0 0 0 0 0 0 0 -0 0 0 0 0 0 0 0 -0 -0 -0 -0 -0 -0 -0 -0 -0
-0 -0 -0 -0 -0 -0 -0 -0 0 0 0 0 -0 0 0 0 0 0 -0 0 0 0 0 0 0 -0 -0 -0 -0 -0 -0 0 0 0 0 -0 -0 -0 0 -0 -0 0 -0
Wind_Speed_500mb
34 40 42 41 41 36 38 37 36 34 30 30 32 37 43 44 47 47 44 39 35 30 28 25 23 21 17 15 14 17 16 15 16 16 16 18 25 30 28 30 31 20 24
41 39 40 41 40 36 36 35 35 33 31 30 30 34 38 41 40 41 38 33 29 27 23 18 17 16 14 11 10 11 8 8 9 9 11 13 17 21 24 25 17 15 18
40 39 39 39 37 36 34 34 32 31 31 32 34 30 28 34 34 35 34 29 26 23 19 15 13 14 13 11 8 6 6 3 6 9 14 12 17 19 15 13 7 5 14
40 38 36 36 35 33 31 30 30 32 30 30 30 32 39 28 30 31 28 27 24 18 16 12 9 8 10 8 3 3 5 2 5 12 17 17 10 13 4 4 6 3 8
39 37 39 37 34 31 31 29 28 30 28 26 22 25 31 31 26 28 27 22 18 15 13 13 9 7 7 6 2 6 2 5 9 16 9 14 15 13 15 19 14 13 6
39 40 41 39 33 28 28 30 28 27 27 26 25 27 30 38 28 29 26 20 18 14 10 9 10 10 11 7 6 3 3 10 14 8 7 9 11 19 15 21 26 24 13
43 35 41 36 30 27 26 25 25 26 25 25 27 29 35 15 40 31 30 24 18 14 10 10 13 10 8 9 6 6 7 9 10 10 5 7 14 15 13 20 22 34 14
41 35 35 34 29 26 26 24 24 25 23 24 22 23 29 19 24 35 25 23 20 16 14 13 12 10 8 7 7 9 7 4 1 7 9 8 21 15 10 18 21 34 23
39 37 33 29 29 24 22 20 20 19 19 16 15 13 17 11 22 34 28 23 21 17 16 14 14 11 10 10 9 10 8 12 11 1 3 8 7 11 11 17 23 27 27
37 39 33 31 27 25 21 21 20 16 15 12 10 12 8 14 22 27 24 23 22 18 16 16 15 14 14 12 10 9 8 5 7 2 10 14 12 8 11 14 15 17 18
35 33 31 29 29 29 22 22 21 18 15 14 13 10 11 16 15 9 14 22 14 16 17 17 16 15 12 9 9 9 7 13 7 4 17 17 12 11 11 11 14 17 18
36 35 32 30 27 29 25 24 20 19 14 15 14 14 29 21 16 20 13 15 15 17 16 17 17 14 12 16 10 1 8 10 9 7 13 14 11 11 11 12 15 17 15
35 33 36 32 30 30 32 19 23 19 18 17 20 20 16 32 13 15 12 9 10 11 12 11 14 13 14 10 8 21 21 16 13 8 11 15 12 15 14 13 16 17 16
36 34 37 34 34 29 24 20 22 18 13 10 17 23 21 29 25 20 18 18 18 20 22 15 15 12 11 14 10 12 7 22 15 7 16 14 14 17 16 15 14 17 18
39 36 34 37 36 32 29 25 25 16 21 18 20 21 19 14 18 25 21 20 20 18 19 17 14 17 18 18 13 19 16 15 6 5 8 14 14 18 17 18 14 17 18
34 36 35 33 33 33 43 38 24 23 25 20 19 17 33 22 23 17 14 15 16 22 22 23 20 20 18 20 16 18 7 11 12 12 12 8 13 19 18 20 18 19 17
41 38 39 35 37 32 31 37 40 22 25 22 20 27 23 25 14 17 8 8 21 14 7 13 18 13 12 15 30 19 7 8 4 7 8 14 8 17 20 19 19 20 20
35 39 36 34 35 32 32 31 35 23 27 23 26 19 23 32 29 18 7 11 21 10 11 19 11 11 12 15 10 15 17 13 11 7 11 14 5 12 12 18 18 19 20
33 33 32 31 31 37 29 33 35 31 30 28 23 27 23 27 28 20 13 15 15 13 14 15 12 13 13 15 12 8 11 16 6 7 11 15 17 15 7 9 13 16 18
31 30 30 30 27 32 30 31 36 42 35 38 33 31 30 28 25 19 23 22 20 22 19 17 16 13 15 18 18 14 12 13 11 11 12 9 14 15 16 17 15 14 13
32 34 33 31 31 32 28 27 32 41 46 46 44 36 22 23 26 20 16 17 15 23 14 23 15 24 20 21 17 22 13 12 11 13 12 12 17 15 17 17 13 13 18
37 35 36 35 33 32 25 28 30 27 32 41 41 41 29 28 22 18 18 11 16 13 14 16 20 19 15 23 21 23 12 13 20 17 12 14 14 13 16 18 17 22 17
41 39 38 38 36 33 29 28 27 33 36 36 43 41 33 25 24 17 18 19 12 12 10 14 15 18 15 12 16 10 11 13 21 19 14 14 15 18 15 17 18 21 23
47 41 40 40 38 33 32 27 29 29 40 37 44 35 33 30 26 21 15 17 16 11 8 14 17 10 13 9 6 6 6 6 13 13 16 15 15 18 18 19 18 22 24
49 44 41 38 36 32 32 29 27 30 34 37 40 39 34 36 29 24 18 15 18 15 13 12 15 17 7 9 12 13 9 3 2 4 14 20 19 20 18 17 23 19 25
47 46 44 41 40 35 31 27 24 25 32 41 42 38 36 32 31 27 23 17 19 19 12 14 14 13 8 9 12 16 10 9 12 13 16 21 32 12 27 21 19 22 21
Wind_Direction_500mb
146 145 142 137 131 129 124 126 126 129 128 134 132 137 139 134 140 141 139 144 140 140 138 134 127 124 117 107 99 99 98 98 100 97 98 106 104 108 106 103 98 117 107
147 147 143 140 138 135 135 133 136 141 143 140 132 139 143 142 142 149 151 152 153 155 151 149 139 131 136 128 102 81 91 114 122 122 117 120 118 111 106 109 131 107 109
145 150 147 143 141 143 147 152 148 147 148 147 144 143 149 158 149 147 148 146 149 152 153 158 150 138 131 129 113 77 42 68 142 140 104 124 145 131 129 123 98 91 124
147 145 150 145 143 144 148 153 157 157 151 155 161 174 164 162 173 167 161 155 153 154 154 161 165 154 150 148 106 349 348 86 130 133 116 171 178 167 120 306 218 206 145
147 150 157 151 145 147 151 155 158 158 162 162 164 167 185 179 172 175 165 167 165 169 173 187 196 212 211 195 279 316 340 108 115 117 170 192 200 229 229 244 246 209 178
148 155 159 156 148 150 156 157 160 162 167 168 178 189 171 185 180 187 189 174 168 174 178 198 218 243 241 245 267 273 142 115 109 118 164 218 205 219 233 213 225 202 205
152 163 165 162 153 150 156 156 162 166 171 177 180 184 187 190 189 185 195 196 195 208 213 220 232 242 239 253 246 191 167 145 138 163 199 194 231 217 201 199 193 194 212
157 156 168 164 162 160 157 157 165 168 176 180 183 187 196 221 202 196 194 211 222 222 224 230 237 232 222 228 181 164 157 147 93 225 223 223 235 235 221 196 192 203 228
159 162 165 168 170 170 165 165 167 173 173 173 188 207 212 249 168 196 211 219 225 220 222 225 225 206 185 173 165 172 135 118 141 260 208 180 215 218 206 186 198 219 232
164 168 182 173 174 174 177 171 172 176 177 183 195 228 227 155 160 184 201 221 223 218 217 209 202 189 182 190 202 189 145 114 103 171 144 212 260 196 180 183 192 203 210
179 171 179 177 174 168 182 184 180 184 190 194 194 192 173 140 144 199 183 203 200 197 199 204 195 194 196 192 198 177 165 134 195 177 206 245 246 196 182 171 176 182 189
181 175 192 183 174 183 169 212 177 194 182 186 187 168 138 147 202 169 202 217 201 205 206 205 198 198 197 215 217 146 134 138 151 174 228 276 223 185 175 170 174 181 195
185 183 183 186 185 181 195 202 180 196 182 207 193 167 165 167 184 184 216 230 202 202 199 211 204 208 207 273 228 216 191 157 167 169 238 283 201 182 186 179 190 194 202
187 195 193 197 186 187 202 202 183 182 179 210 200 168 195 165 165 204 187 196 208 208 204 185 205 221 214 233 219 224 190 173 229 184 263 296 213 195 190 189 198 197 203
195 198 197 189 200 197 190 190 201 195 178 215 206 188 190 178 201 191 192 192 189 186 192 199 199 218 212 216 220 232 214 150 151 218 249 302 226 198 196 192 201 212 211
195 198 199 200 199 205 198 185 197 199 181 206 216 219 183 177 211 206 195 188 184 198 197 200 193 217 214 209 212 229 324 183 175 163 261 295 225 197 199 203 211 211 207
196 201 200 200 210 212 206 200 186 206 213 206 201 213 203 184 217 211 176 223 200 225 91 190 212 203 218 184 212 199 254 179 109 214 190 247 224 208 208 213 211 206 197
197 195 198 207 212 214 209 205 199 202 207 207 206 220 223 200 192 208 208 261 205 208 221 217 186 197 195 205 198 222 193 164 179 210 191 200 201 199 245 221 214 212 208
201 195 199 208 205 212 213 213 206 186 210 191 219 210 218 205 205 202 215 236 205 194 216 211 202 194 187 183 180 185 171 203 192 179 187 184 203 200 256 228 244 220 215
198 199 199 199 205 206 217 219 214 207 207 200 195 212 221 209 205 202 214 212 209 199 194 194 173 181 182 180 179 163 170 187 203 185 191 187 201 190 202 269 225 200 202
196 195 196 197 196 195 216 208 205 211 213 209 208 206 193 214 200 206 201 192 187 172 165 201 196 183 195 187 187 159 181 184 204 193 196 192 194 193 199 214 205 221 264
197 195 197 200 201 202 204 211 209 212 226 221 216 209 195 208 185 205 183 191 193 192 187 183 166 183 190 212 187 164 194 185 206 203 194 192 206 194 210 214 209 208 230
201 198 199 200 205 207 202 213 217 215 216 212 212 208 184 196 190 187 186 168 201 177 155 191 176 188 188 223 214 146 165 213 197 202 179 203 192 205 211 205 218 226 211
206 201 200 201 203 210 211 221 231 216 211 208 205 190 184 187 183 186 196 204 187 200 208 185 182 182 199 230 254 204 216 292 161 201 182 198 205 216 208 216 220 222 231
200 200 201 199 209 207 214 208 241 223 207 207 188 181 182 185 183 192 194 196 202 202 198 171 155 152 238 192 214 196 194 211 224 188 213 210 204 208 212 217 219 225 217
201 198 196 198 204 208 219 221 225 223 205 185 178 181 179 185 184 201 198 209 194 192 182 146 154 153 148 152 165 180 198 236 231 233 224 202 216 210 204 214 227 228 230
Wind_Speed_850mb
34 40 42 41 41 36 38 37 36 34 30 30 32 37 43 44 47 47 44 39 35 30 28 25 23 21 17 15 14 17 16 15 16 16 16 18 25 30 28 30 31 20 24
41 39 40 41 40 36 36 35 35 33 31 30 30 34 38 41 40 41 38 33 29 27 23 18 17 16 14 11 10 11 8 8 9 9 11 13 17 21 24 25 17 15 18
40 39 39 39 37 36 34 34 32 31 31 32 34 30 28 34 34 35 34 29 26 23 19 15 13 14 13 11 8 6 6 3 6 9 14 12 17 19 15 13 7 5 14
40 38 36 36 35 33 31 30 30 32 30 30 30 32 39 28 30 31 28 27 24 18 16 12 9 8 10 8 3 3 5 2 5 12 17 17 10 13 4 4 6 3 8
39 37 39 37 34 31 31 29 28 30 28 26 22 25 31 31 26 28 27 22 18 15 13 13 9 7 7 6 2 6 2 5 9 16 9 14 15 13 15 19 14 13 6
39 40 41 39 33 28 28 30 28 27 27 26 25 27 30 38 28 29 26 20 18 14 10 9 10 10 11 7 6 3 3 10 14 8 7 9 11 19 15 21 26 24 13
43 35 41 36 30 27 26 25 25 26 25 25 27 29 35 15 40 31 30 24 18 14 10 10 13 10 8 9 6 6 7 9 10 10 5 7 14 15 13 20 22 34 14
41 35 35 34 29 26 26 24 24 25 23 24 22 23 29 19 24 35 25 23 20 16 14 13 12 10 8 7 7 9 7 4 1 7 9 8 21 15 10 18 21 34 23
39 37 33 29 29 24 22 20 20 19 19 16 15 13 17 11 22 34 28 23 21 17 16 14 14 11 10 10 9 10 8 12 11 1 3 8 7 11 11 17 23 27 27
37 39 33 31 27 25 21 21 20 16 15 12 10 12 8 14 22 27 24 23 22 18 16 16 15 14 14 12 10 9 8 5 7 2 10 14 12 8 11 14 15 17 18
35 33 31 29 29 29 22 22 21 18 15 14 13 10 11 16 15 9 14 22 14 16 17 17 16 15 12 9 9 9 7 13 7 4 17 17 12 11 11 11 14 17 18
36 35 32 30 27 29 25 24 20 19 14 15 14 14 29 21 16 20 13 15 15 17 16 17 17 14 12 16 10 1 8 10 9 7 13 14 11 11 11 12 15 17 15
35 33 36 32 30 30 32 19 23 19 18 17 20 20 16 32 13 15 12 9 10 11 12 11 14 13 14 10 8 21 21 16 13 8 11 15 12 15 14 13 16 17 16
36 34 37 34 34 29 24 20 22 18 13 10 17 23 21 29 25 20 18 18 18 20 22 15 15 12 11 14 10 12 7 22 15 7 16 14 14 17 16 15 14 17 18
39 36 34 37 36 32 29 25 25 16 21 18 20 21 19 14 18 25 21 20 20 18 19 17 14 17 18 18 13 19 16 15 6 5 8 14 14 18 17 18 14 17 18
34 36 35 33 33 33 43 38 24 23 25 20 19 17 33 22 23 17 14 15 16 22 22 23 20 20 18 20 16 18 7 11 12 12 12 8 13 19 18 20 18 19 17
41 38 39 35 37 32 31 37 40 22 25 22 20 27 23 25 14 17 8 8 21 14 7 13 18 13 12 15 30 19 7 8 4 7 8 14 8 17 20 19 19 20 20
35 39 36 34 35 32 32 31 35 23 27 23 26 19 23 32 29 18 7 11 21 10 11 19 11 11 12 15 10 15 17 13 11 7 11 14 5 12 12 18 18 19 20
33 33 32 31 31 37 29 33 35 31 30 28 23 27 23 27 28 20 13 15 15 13 14 15 12 13 13 15 12 8 11 16 6 7 11 15 17 15 7 9 13 16 18
31 30 30 30 27 32 30 31 36 42 35 38 33 31 30 28 25 19 23 22 20 22 19 17 16 13 15 18 18 14 12 13 11 11 12 9 14 15 16 17 15 14 13
32 34 33 31 31 32 28 27 32 41 46 46 44 36 22 23 26 20 16 17 15 23 14 23 15 24 20 21 17 22 13 12 11 13 12 12 17 15 17 17 13 13 18
37 35 36 35 33 32 25 28 30 27 32 41 41 41 29 28 22 18 18 11 16 13 14 16 20 19 15 23 21 23 12 13 20 17 12 14 14 13 16 18 17 22 17
41 39 38 38 36 33 29 28 27 33 36 36 43 41 33 25 24 17 18 19 12 12 10 14 15 18 15 12 16 10 11 13 21 19 14 14 15 18 15 17 18 21 23
47 41 40 40 38 33 32 27 29 29 40 37 44 35 33 30 26 21 15 17 16 11 8 14 17 10 13 9 6 6 6 6 13 13 16 15 15 18 18 19 18 22 24
49 44 41 38 36 32 32 29 27 30 34 37 40 39 34 36 29 24 18 15 18 15 13 12 15 17 7 9 12 13 9 3 2 4 14 20 19 20 18 17 23 19 25
47 46 44 41 40 35 31 27 24 25 32 41 42 38 36 32 31 27 23 17 19 19 12 14 14 13 8 9 12 16 10 9 12 13 16 21 32 12 27 21 19 22 21
Wind_Direction_850mb
146 145 142 137 131 129 124 126 126 129 128 134 132 137 139 134 140 141 139 144 140 140 138 134 127 124 117 107 99 99 98 98 100 97 98 106 104 108 106 103 98 117 107
147 147 143 140 138 135 135 133 136 141 143 140 132 139 143 142 142 149 151 152 153 155 151 149 139 131 136 128 102 81 91 114 122 122 117 120 118 111 106 109 131 107 109
145 150 147 143 141 143 147 152 148 147 148 147 144 143 149 158 149 147 148 146 149 152 153 158 150 138 131 129 113 77 42 68 142 140 104 124 145 131 129 123 98 91 124
147 145 150 145 143 144 148 153 157 157 151 155 161 174 164 162 173 167 161 155 153 154 154 161 165 154 150 148 106 349 348 86 130 133 116 171 178 167 120 306 218 206 145
147 150 157 151 145 147 151 155 158 158 162 162 164 167 185 179 172 175 165 167 165 169 173 187 196 212 211 195 279 316 340 108 115 117 170 192 200 229 229 244 246 209 178
148 155 159 156 148 150 156 157 160 162 167 168 178 189 171 185 180 187 189 174 168 174 178 198 218 243 241 245 267 273 142 115 109 118 164 218 205 219 233 213 225 202 205
152 163 165 162 153 150 156 156 162 166 171 177 180 184 187 190 189 185 195 196 195 208 213 220 232 242 239 253 246 191 167 145 138 163 199 194 231 217 201 199 193 194 212
157 156 168 164 162 160 157 157 165 168 176 180 183 187 196 221 202 196 194 211 222 222 224 230 237 232 222 228 181 164 157 147 93 225 223 223 235 235 221 196 192 203 228
159 162 165 168 170 170 165 165 167 173 173 173 188 207 212 249 168 196 211 219 225 220 222 225 225 206 185 173 165 172 135 118 141 260 208 180 215 218 206 186 198 219 232
164 168 182 173 174 174 177 171 172 176 177 183 195 228 227 155 160 184 201 221 223 218 217 209 202 189 182 190 202 189 145 114 103 171 144 212 260 196 180 183 192 203 210
179 171 179 177 174 168 182 184 180 184 190 194 194 192 173 140 144 199 183 203 200 197 199 204 195 194 196 192 198 177 165 134 195 177 206 245 246 196 182 171 176 182 189
181 175 192 183 174 183 169 212 177 194 182 186 187 168 138 147 202 169 202 217 201 205 206 205 198 198 197 215 217 146 134 138 151 174 228 276 223 185 175 170 174 181 195
185 183 183 186 185 181 195 202 180 196 182 207 193 167 165 167 184 184 216 230 202 202 199 211 204 208 207 273 228 216 191 157 167 169 238 283 201 182 186 179 190 194 202
187 195 193 197 186 187 202 202 183 182 179 210 200 168 195 165 165 204 187 196 208 208 204 185 205 221 214 233 219 224 190 173 229 184 263 296 213 195 190 189 198 197 203
195 198 197 189 200 197 190 190 201 195 178 215 206 188 190 178 201 191 192 192 189 186 192 199 199 218 212 216 220 232 214 150 151 218 249 302 226 198 196 192 201 212 211
195 198 199 200 199 205 198 185 197 199 181 206 216 219 183 177 211 206 195 188 184 198 197 200 193 217 214 209 212 229 324 183 175 163 261 295 225 197 199 203 211 211 207
196 201 200 200 210 212 206 200 186 206 213 206 201 213 203 184 217 211 176 223 200 225 91 190 212 203 218 184 212 199 254 179 109 214 190 247 224 208 208 213 211 206 197
197 195 198 207 212 214 209 205 199 202 207 207 206 220 223 200 192 208 208 261 205 208 221 217 186 197 195 205 198 222 193 164 179 210 191 200 201 199 245 221 214 212 208
201 195 199 208 205 212 213 213 206 186 210 191 219 210 218 205 205 202 215 236 205 194 216 211 202 194 187 183 180 185 171 203 192 179 187 184 203 200 256 228 244 220 215
198 199 199 199 205 206 217 219 214 207 207 200 195 212 221 209 205 202 214 212 209 199 194 194 173 181 182 180 179 163 170 187 203 185 191 187 201 190 202 269 225 200 202
196 195 196 197 196 195 216 208 205 211 213 209 208 206 193 214 200 206 201 192 187 172 165 201 196 183 195 187 187 159 181 184 204 193 196 192 194 193 199 214 205 221 264
197 195 197 200 201 202 204 211 209 212 226 221 216 209 195 208 185 205 183 191 193 192 187 183 166 183 190 212 187 164 194 185 206 203 194 192 206 194 210 214 209 208 230
201 198 199 200 205 207 202 213 217 215 216 212 212 208 184 196 190 187 186 168 201 177 155 191 176 188 188 223 214 146 165 213 197 202 179 203 192 205 211 205 218 226 211
206 201 200 201 203 210 211 221 231 216 211 208 205 190 184 187 183 186 196 204 187 200 208 185 182 182 199 230 254 204 216 292 161 201 182 198 205 216 208 216 220 222 231
200 200 201 199 209 207 214 208 241 223 207 207 188 181 182 185 183 192 194 196 202 202 198 171 155 152 238 192 214 196 194 211 224 188 213 210 204 208 212 217 219 225 217
201 198 196 198 204 208 219 221 225 223 205 185 178 181 179 185 184 201 198 209 194 192 182 146 154 153 148 152 165 180 198 236 231 233 224 202 216 210 204 214 227 228 230